Regional Weather Roundup
Issued by NWS

Home | Current Version | Previous Version | Graphics & Text | Print | Product List | Glossary On
Versions: 1 2 3 4 5 6 7 8 9 10 11 12 13 14 15 16 17 18 19 20 21 22 23 24 25 26 27 28 29 30 31 32 33 34 35 36 37 38 39 40 41 42 43 44 45 46 47 48 49 50
654
ASUS43 KMPX 170110
RWRMN
WEATHER ROUNDUP FOR MINNESOTA
NATIONAL WEATHER SERVICE TWIN CITIES/CHANHASSEN MN
700 PM CST MON JAN 16 2017


NOTE: "FAIR" INDICATES FEW OR NO CLOUDS BELOW 12,000 FEET WITH NO
SIGNIFICANT WEATHER AND/OR OBSTRUCTIONS TO VISIBILITY. N/A MEANS
CURRENT SKY AND/OR WEATHER CONDITIONS ARE NOT AVAILABLE.

MNZ060>063-068>070-170200-
   Twin Cities Metro

CITY           SKY/WX    TMP DP  RH WIND       PRES   REMARKS
TWIN CITIES    FRZ RAIN  31  25  78 NE7       30.02F WCI  24
ST PAUL        FRZ RAIN  30  23  75 E5        30.03F WCI  25
CRYSTAL        CLOUDY    31  19  61 NE5       30.02F WCI  26
BLAINE         CLOUDY    30  23  74 NE5       30.02F WCI  25
LAKEVILLE      MIX PCPN  28  28 100 NE7       30.00F WCI  21
EDEN PRAIRIE   FRZ RAIN  31  26  82 NE6       30.00F WCI  25
SOUTH ST PAUL  MIX PCPN  31  25  79 CALM      30.02F
LAKE ELMO      MIX PCPN  30  25  80 NE7       30.02F WCI  23
$$
MNZ001>005-007-008-013>017-022>024-027-028-170200-
   Northwest Minnesota

CITY           SKY/WX    TMP DP  RH WIND       PRES   REMARKS
BEMIDJI        CLEAR     19  16  89 CALM      30.02R
HALLOCK        CLOUDY     7   3  85 CALM      30.04S
ROSEAU         CLOUDY     5   0  78 CALM      30.03S
WARROAD        CLOUDY     9   7  92 CALM      30.03S
THIEF RVR FALL CLOUDY     9   6  88 SW3       30.04S
CROOKSTON      CLOUDY     9   7  92 S5        30.06S WCI   0
FOSSTON        CLOUDY     7   1  78 CALM      30.04S
DETROIT LAKES  CLOUDY    21  14  73 CALM      30.03S
MOORHEAD       CLOUDY    12   7  79 S5        30.07S WCI   4
PARK RAPIDS    CLOUDY    18  12  77 CALM      30.01S
MAHNOMEN       FAIR      10   7  86 CALM      30.04R
$$
MNZ006-009>011-018-025>026-170200-
   North Central Minnesota

CITY           SKY/WX    TMP DP  RH WIND       PRES   REMARKS
BAUDETTE       CLOUDY    12   7  80 CALM      30.01S
FLAG ISLAND    CLOUDY    12   9  85 CALM      30.02S
INTL FALLS     CLOUDY    12   7  80 CALM      30.03S
WASKISH        CLOUDY    10   9  92 CALM      30.02S
BIG FORK       CLOUDY    19  18  93 CALM      30.03R
LONGVILLE      CLOUDY    19  16  86 CALM      30.02F
GRAND RAPIDS   CLOUDY    26  19  74 S6        30.03F WCI  19
CRANE LAKE     CLOUDY    12  10  92 CALM      30.06R
ORR            CLOUDY    23  18  80 CALM      30.01R
COOK           CLOUDY    19  18  93 CALM      30.04R
WALKER         FAIR      21  18  86 CALM      30.01F
$$
MNZ012-019>021-037-170200-
   Northeast Minnesota

CITY           SKY/WX    TMP DP  RH WIND       PRES   REMARKS
DULUTH         CLOUDY    23  16  74 CALM      30.03S
ELY            CLOUDY    18  16  93 CALM      30.04R
HIBBING        CLOUDY    14  10  84 CALM      30.02F
EVELETH        CLOUDY    20  17  86 CALM      30.04F
DULUTH HARBOR  CLOUDY    27  19  74 CALM      30.07S
TWO HARBORS    CLOUDY    27  19  74 CALM      30.02F
SILVER BAY     CLOUDY    25  21  86 N3        30.03F
GRAND MARAIS     N/A     25  21  85 N3        30.10R
G MARAIS ARPRT CLOUDY    25  19  80 CALM      30.05R
$$
MNZ029>031-032-039>041-046>048-054>057-064-170200-
   West Central Minnesota

CITY           SKY/WX    TMP DP  RH WIND       PRES   REMARKS
FERGUS FALLS   CLOUDY    16  12  86 N3        30.09F
WHEATON        CLOUDY    12  10  92 W3        30.08F FOG
MORRIS         CLOUDY    16  12  86 NW6       30.04S WCI   7
ALEXANDRIA     CLOUDY    17  13  84 CALM      30.02F
ELBOW LAKE     FAIR      15  13  92 CALM      30.04S FOG
WADENA         CLOUDY    16  14  93 CALM      30.02S FOG
GLENWOOD       FOG       27  27 100 CALM      30.03F VSB 1/4
APPLETON       CLOUDY    27  25  93 E3        30.04F FOG
ORTONVILLE     CLOUDY    12   9  85 CALM      30.05S
MADISON        CLOUDY    25  19  80 CALM      30.05S
WILLMAR        CLOUDY    30  30 100 CALM      30.04S FOG
$$
MNZ033>034-036-042>043-049>051-058-059-170200-
   Central Minnesota

CITY           SKY/WX    TMP DP  RH WIND       PRES   REMARKS
ST CLOUD       CLOUDY    23  21  92 N6        30.04R FOG     WCI  16
SAUK CENTRE    FOG       27  26  99 CALM      30.03F VSB 1/4
PAYNESVILLE    CLOUDY    28  28 100 N3        30.04S FOG
AITKIN         CLOUDY    18  12  79 CALM      30.02F
PINE RIVER     CLOUDY    16  10  79 CALM      30.06S
BRAINERD       CLOUDY    19  14  81 S3        30.03F
STAPLES        CLOUDY    12  10  92 CALM      30.02F
LONG PRAIRIE   CLOUDY    23  21  93 CALM      30.03F
LITTLE FALLS   CLOUDY    27  21  80 CALM      30.04F
LITCHFIELD     CLOUDY    30  27  86 N5        30.02F WCI  25
BUFFALO        PTCLDY    30  24  78 N6        30.03F WCI  24
MAPLE LAKE     CLOUDY    30  24  79 N3        30.03F
HUTCHINSON     CLOUDY    32  28  84 N7        30.02S WCI  25
$$
MNZ037-044-045-052-053-170200-
   East Central Minnesota

CITY           SKY/WX    TMP DP  RH WIND       PRES   REMARKS
PRINCETON      CLOUDY    27  19  74 N5        30.05R WCI  21
MORA           CLOUDY    19  14  79 CALM      30.07S
CAMBRIDGE      CLOUDY    28  18  64 N3        30.03S
RUSH CITY      CLOUDY    25  18  74 N3        30.05F
MOOSE LAKE     CLOUDY    25  18  74 CALM      30.03F
HINCKLEY       FAIR      25  19  80 N3        30.06S
CLOQUET        CLOUDY    27  18  69 CALM      30.03S
MCGREGOR       CLOUDY    23  19  86 CALM      30.04S
$$
MNZ071>073-080-081-089-090-097-098-170200-
   Southwest Minnesota

CITY           SKY/WX    TMP DP  RH WIND       PRES   REMARKS
MONTEVIDEO     CLOUDY    25  21  86 N3        30.06S
GRANITE FALLS  CLOUDY    29  28  96 NW8       30.05S FOG     WCI  21
CANBY            N/A     24  20  84 CALM      30.05S
MARSHALL       CLOUDY    27  24  89 N8        30.02S WCI  19
REDWOOD FALLS  CLOUDY    31  29  92 N5        30.01S FOG     WCI  26
OLIVIA         CLOUDY    32  30  93 N5        30.01S WCI  27
PIPESTONE      CLOUDY    30  28  93 NE7       29.97S FOG     WCI  23
WINDOM         MIX PCPN  30  30 100 N8        29.97S WCI  23
WORTHINGTON    MIX PCPN  30  29  96 N12       29.96F FOG     WCI  20
JACKSON        LGT RAIN  30  30 100 N9        29.96S WCI  22
TRACY          FOG       30  30  99 N10       30.00S VSB 1/2 WCI  21
SLAYTON        MIX PCPN  28  28 100 N8        29.98F WCI  19
$$
MNZ065>067-074>077-082>085-091>093-170200-
   South Central Minnesota

CITY           SKY/WX    TMP DP  RH WIND       PRES   REMARKS
MANKATO        LGT SNOW  31  29  92 NE9       29.98F FOG     WCI  23
NEW ULM        MIX PCPN  30  28  93 NE7       29.99S WCI  23
ST JAMES       MIX PCPN  30  30 100 N7        29.99F WCI  23
FAIRMONT       MIX PCPN  31  30  96 N8        29.97S FOG     WCI  23
GLENCOE        CLOUDY    32  32  98 N3        30.00S FOG
FARIBAULT      MIX PCPN  30  28  93 N7        29.99S WCI  23
OWATONNA       LGT RAIN  32  30  93 NE5       29.97S WCI  27
WASECA         MIX PCPN  32  32 100 NE3       29.98S
ALBERT LEA     LGT SNOW  34  32  93 NE8       29.95S WCI  27
$$
MNZ078>079-086>088-094>096-170200-
   Southeast Minnesota

CITY           SKY/WX    TMP DP  RH WIND       PRES   REMARKS
ROCHESTER      FRZ RAIN  31  31 100 E13       29.95F FOG     WCI  21
RED WING       MIX PCPN  30  28  93 E5        30.00F WCI  25
STANTON        MIX PCPN  32  29  90 NE6       29.98F WCI  26
DODGE CENTER   MIX PCPN  30  30 100 CALM      29.95F
WINONA         MIX PCPN  34  32  93 CALM      30.01S
AUSTIN         MIX PCPN  32  30  93 E6        29.94S WCI  26
PRESTON        CLOUDY    31  29  94 NE5       29.95F FOG     WCI  26
$$
ABBREVIATIONS USED IN REMARKS
   TC - TEMPERATURES IN CELSIUS
  WCI - WIND CHILL INDEX
   HX - HEAT INDEX
  VSB - VISIBILITY
$$




USA.gov is the U.S. government's official web portal to all federal, state and local government web resources and services.